Powrót do katalogu

HYLAS 2

AktywnyŁącznośćGEO
NORAD 38741·PAYLOAD·🇬🇧 United Kingdom

Wystrzelony Aug 2, 2012 z Guiana Space Centre

Loading…

TLE

ŚwieżeSource: Space-Track

Epoka: Sep 14, 2026, 10:16 UTC

1 38741U 12043B   26257.42831118 -.00000130  00000-0  00000-0 0  9998
2 38741   2.6504  79.8849 0003434 156.2430 250.0916  1.00522798 51678

Śledź HYLAS 2 w czasie rzeczywistym z AllMySat

Download on the App Store